TimeMDT,TemperatureF,Dew PointF,Humidity,Sea Level PressureIn,VisibilityMPH,Wind Direction,Wind SpeedMPH,Gust SpeedMPH,PrecipitationIn,Events,Conditions,WindDirDegrees,DateUTC
12:53 AM,44.1,30.9,60,29.76,10.0,WSW,5.8,-,N/A,,Clear,240,2013-04-07 06:53:00
1:53 AM,44.1,32.0,63,29.75,10.0,Calm,Calm,-,N/A,,Scattered Clouds,0,2013-04-07 07:53:00
2:53 AM,43.0,30.9,62,29.74,10.0,Calm,Calm,-,N/A,,Overcast,0,2013-04-07 08:53:00
3:53 AM,42.1,35.1,76,29.73,10.0,ESE,4.6,-,N/A,,Overcast,120,2013-04-07 09:53:00
4:53 AM,42.1,36.0,79,29.73,10.0,Calm,Calm,-,N/A,,Overcast,0,2013-04-07 10:53:00
5:53 AM,41.0,32.0,70,29.73,10.0,NNW,3.5,-,N/A,,Mostly Cloudy,340,2013-04-07 11:53:00
6:53 AM,39.0,30.9,73,29.73,10.0,Calm,Calm,-,N/A,,Clear,0,2013-04-07 12:53:00
7:53 AM,39.9,34.0,79,29.72,10.0,Calm,Calm,-,N/A,,Partly Cloudy,0,2013-04-07 13:53:00
8:53 AM,45.0,34.0,65,29.71,10.0,Calm,Calm,-,N/A,,Clear,0,2013-04-07 14:53:00
9:53 AM,48.0,35.1,61,29.68,10.0,SSE,3.5,-,N/A,,Clear,150,2013-04-07 15:53:00
10:53 AM,50.0,34.0,54,29.67,10.0,Calm,Calm,-,N/A,,Overcast,0,2013-04-07 16:53:00
11:53 AM,51.1,33.1,50,29.66,10.0,Calm,Calm,-,N/A,,Overcast,0,2013-04-07 17:53:00
12:53 PM,54.0,30.9,41,29.63,10.0,Calm,Calm,-,N/A,,Overcast,0,2013-04-07 18:53:00
1:53 PM,55.9,30.0,37,29.60,10.0,ESE,9.2,-,N/A,,Mostly Cloudy,110,2013-04-07 19:53:00
2:53 PM,57.9,26.1,30,29.55,10.0,Variable,6.9,-,N/A,,Clear,0,2013-04-07 20:53:00
3:53 PM,60.1,27.0,28,29.52,10.0,South,9.2,-,N/A,,Clear,180,2013-04-07 21:53:00
4:53 PM,59.0,25.0,27,29.51,10.0,SW,4.6,-,N/A,,Partly Cloudy,220,2013-04-07 22:53:00
5:53 PM,59.0,25.0,27,29.51,10.0,WSW,8.1,-,N/A,,Clear,240,2013-04-07 23:53:00
6:53 PM,57.9,26.1,30,29.51,10.0,WSW,4.6,-,N/A,,Partly Cloudy,250,2013-04-08 00:53:00
7:53 PM,55.9,26.1,32,29.52,10.0,NW,12.7,-,N/A,,Mostly Cloudy,320,2013-04-08 01:53:00
8:53 PM,53.1,26.1,35,29.54,10.0,NW,11.5,-,N/A,,Overcast,310,2013-04-08 02:53:00
9:53 PM,50.0,30.0,46,29.55,10.0,NW,17.3,-,N/A,,Clear,310,2013-04-08 03:53:00
10:53 PM,48.0,32.0,54,29.55,10.0,NW,18.4,-,N/A,,Partly Cloudy,320,2013-04-08 04:53:00
11:53 PM,45.0,34.0,65,29.58,10.0,WNW,13.8,-,N/A,,Mostly Cloudy,290,2013-04-08 05:53:00